TimeAST,TemperatureF,Dew PointF,Humidity,Sea Level PressureIn,VisibilityMPH,Wind Direction,Wind SpeedMPH,Gust SpeedMPH,PrecipitationIn,Events,Conditions,WindDirDegrees,DateUTC
12:00 AM,82.4,68.0,62,29.89,-9999.0,ENE,3.5,-,N/A,,Clear,70,2011-10-26 21:00:00
12:30 AM,82.4,68.0,62,29.89,-9999.0,ENE,4.6,-,N/A,,Clear,60,2011-10-26 21:30:00
1:00 AM,80.6,64.4,58,29.89,-9999.0,NE,3.5,-,N/A,,Clear,50,2011-10-26 22:00:00
1:30 AM,82.4,62.6,51,29.89,-9999.0,NE,5.8,-,N/A,,Clear,50,2011-10-26 22:30:00
2:00 AM,82.4,64.4,54,29.89,-9999.0,ENE,4.6,-,N/A,,Clear,60,2011-10-26 23:00:00
2:30 AM,82.4,66.2,58,29.89,-9999.0,ENE,4.6,-,N/A,,Clear,70,2011-10-26 23:30:00
3:00 AM,81,67,53,29.90,10,East,3.5,,,,,80,2011-10-27 00:00:00
3:00 AM,80.6,66.2,61,29.89,-9999.0,East,3.5,-,N/A,,Clear,80,2011-10-27 00:00:00
3:30 AM,80.6,68.0,65,29.89,-9999.0,Variable,1.2,-,N/A,,Clear,0,2011-10-27 00:30:00
4:00 AM,80.6,66.2,61,29.89,-9999.0,Calm,Calm,-,N/A,,Clear,0,2011-10-27 01:00:00
4:30 AM,80.6,68.0,65,29.89,-9999.0,Variable,1.2,-,N/A,,Clear,0,2011-10-27 01:30:00
5:00 AM,80.6,68.0,65,29.92,-9999.0,Variable,2.3,-,N/A,,Clear,0,2011-10-27 02:00:00
5:30 AM,80.6,71.6,74,29.92,6.2,ESE,3.5,-,N/A,,Partly Cloudy,120,2011-10-27 02:30:00
6:00 AM,81,72,68,29.93,6,SE,3.5,,,,Scattered Clouds,130,2011-10-27 03:00:00
6:00 AM,80.6,71.6,74,29.92,6.2,SE,3.5,-,N/A,,Partly Cloudy,130,2011-10-27 03:00:00
6:30 AM,82.4,73.4,74,29.95,6.2,SE,5.8,-,N/A,,Partly Cloudy,140,2011-10-27 03:30:00
7:00 AM,84.2,71.6,66,29.95,6.2,SE,6.9,-,N/A,,Partly Cloudy,140,2011-10-27 04:00:00
7:30 AM,86.0,71.6,62,29.98,6.2,SE,6.9,-,N/A,,Partly Cloudy,140,2011-10-27 04:30:00
8:00 AM,86.0,71.6,62,29.98,6.2,SSE,9.2,-,N/A,,Partly Cloudy,160,2011-10-27 05:00:00
8:30 AM,87.8,71.6,58,29.98,6.2,SSE,11.5,-,N/A,,Partly Cloudy,150,2011-10-27 05:30:00
9:00 AM,88,71,49,30.01,9,SSE,11.5,,,,Scattered Clouds,150,2011-10-27 06:00:00
9:00 AM,87.8,71.6,58,30.01,6.2,SSE,11.5,-,N/A,,Partly Cloudy,150,2011-10-27 06:00:00
9:30 AM,87.8,71.6,58,30.01,6.2,SE,12.7,-,N/A,,Partly Cloudy,140,2011-10-27 06:30:00
10:00 AM,89.6,69.8,52,29.98,6.2,SSE,11.5,-,N/A,,Partly Cloudy,150,2011-10-27 07:00:00
10:30 AM,89.6,69.8,52,29.98,6.2,SE,12.7,-,N/A,,Partly Cloudy,130,2011-10-27 07:30:00
11:00 AM,89.6,69.8,52,29.95,6.2,SE,12.7,-,N/A,,Partly Cloudy,130,2011-10-27 08:00:00
11:30 AM,91.4,66.2,43,29.95,6.2,SE,13.8,-,N/A,,Partly Cloudy,130,2011-10-27 08:30:00
12:00 PM,91.4,62.6,38,29.95,6.2,SE,16.1,-,N/A,,Partly Cloudy,140,2011-10-27 09:00:00
12:30 PM,91.4,66.2,43,29.92,6.2,SE,15.0,-,N/A,,Partly Cloudy,140,2011-10-27 09:30:00
1:00 PM,89.6,64.4,43,29.92,6.2,SE,16.1,-,N/A,,Partly Cloudy,140,2011-10-27 10:00:00
1:30 PM,91.4,66.2,43,29.92,6.2,SE,13.8,-,N/A,,Partly Cloudy,130,2011-10-27 10:30:00
2:00 PM,91.4,64.4,41,29.92,6.2,SE,15.0,-,N/A,,Partly Cloudy,140,2011-10-27 11:00:00
2:30 PM,89.6,59.0,36,29.92,6.2,SE,15.0,-,N/A,,Partly Cloudy,130,2011-10-27 11:30:00
3:00 PM,89,64,33,29.92,7,SE,15.0,,,,Scattered Clouds,130,2011-10-27 12:00:00
3:00 PM,89.6,64.4,43,29.92,6.2,SE,15.0,-,N/A,,Partly Cloudy,130,2011-10-27 12:00:00
3:30 PM,89.6,62.6,40,29.92,6.2,SE,13.8,-,N/A,,Partly Cloudy,130,2011-10-27 12:30:00
4:00 PM,89.6,62.6,40,29.92,6.2,SE,13.8,-,N/A,,Partly Cloudy,130,2011-10-27 13:00:00
4:30 PM,87.8,69.8,55,29.92,-9999.0,ESE,11.5,-,N/A,,Clear,120,2011-10-27 13:30:00
5:00 PM,86.0,69.8,58,29.92,-9999.0,ESE,9.2,-,N/A,,Clear,120,2011-10-27 14:00:00
5:30 PM,86.0,69.8,58,29.92,-9999.0,ESE,9.2,-,N/A,,Clear,120,2011-10-27 14:30:00
6:00 PM,86.0,71.6,62,29.92,-9999.0,ESE,9.2,-,N/A,,Clear,120,2011-10-27 15:00:00
6:30 PM,86.0,69.8,58,29.92,-9999.0,ESE,10.4,-,N/A,,Clear,120,2011-10-27 15:30:00
7:00 PM,86.0,69.8,58,29.92,-9999.0,ESE,9.2,-,N/A,,Clear,110,2011-10-27 16:00:00
7:30 PM,84.2,69.8,62,29.95,-9999.0,ESE,6.9,-,N/A,,Clear,110,2011-10-27 16:30:00
8:00 PM,84.2,69.8,62,29.95,-9999.0,SE,6.9,-,N/A,,Clear,130,2011-10-27 17:00:00
8:30 PM,84.2,71.6,66,29.95,-9999.0,East,2.3,-,N/A,,Clear,90,2011-10-27 17:30:00
9:00 PM,84.2,69.8,62,29.95,-9999.0,ESE,5.8,-,N/A,,Clear,120,2011-10-27 18:00:00
9:30 PM,84.2,69.8,62,29.95,-9999.0,ESE,4.6,-,N/A,,Clear,120,2011-10-27 18:30:00
10:00 PM,82.4,69.8,66,29.95,-9999.0,East,3.5,-,N/A,,Clear,80,2011-10-27 19:00:00
10:30 PM,82.4,69.8,66,29.95,-9999.0,SE,4.6,-,N/A,,Clear,130,2011-10-27 19:30:00
11:00 PM,82.4,69.8,66,29.95,-9999.0,SE,4.6,-,N/A,,Clear,140,2011-10-27 20:00:00
11:30 PM,82.4,68.0,62,29.95,-9999.0,SE,4.6,-,N/A,,Clear,140,2011-10-27 20:30:00